Location: D�derode
(51.8092°N, 10.1065°E)
Time: 00:37:26
(UTC+00:00)

Cosmos 1812 - Pass Details

Date: 24 April 2021
Orbit: 516 x 519 km, 82.5° (Epoch: 10 May)

Event Time Altitude Azimuth Distance (km) Brightness Sun altitude
Exits shadow 23:19:20 49° 321° (NW) 682 3.5 -25.0°
Drops below altitude 10° 23:22:33 10° 3° (N) 1,767 6.5 -25.0°
Sets 23:24:44 0° 8° (N) 2,660 7.7 -25.0°
